(164589) La Sagra = 2000 WD196 = 2003 OS32 = 2006 FH21 = 2007 PC11

Discovered at La Sagra on 2007-08-11 by OAM.
(164589) La Sagra = 2007 PC11

At 2382 meters, Sierra de La Sagra, or just "La Sagra", is the highest mountain of the Prebetic mountain range in the south of Spain. The dark skies of the region, along with the good climate, make it an ideal location for an observatory. This is the first numbered minor planet from Observatorio de La Sagra. [Ref: Minor Planet Circ. 62357]

Orbit

Orbit type: Main Belt

Note: WebGL enabled browser required.

epoch2023-09-13.0
epoch JD2460200.5
perihelion date2022-09-14.91789
perihelion JD2459837.41789
argument of perihelion (°)175.25907
ascending node (°)128.29869
inclination (°)1.33977
eccentricity0.2209139
perihelion distance (AU)1.9035630
Tisserand w.r.t. Jupiter3.5
ΔV w.r.t. Earth (km/sec)8.6
semimajor axis (AU)2.4433280
mean anomaly (°)93.69923
mean daily motion (°/day)0.25806620
aphelion distance (AU)2.983
period (years)3.82
P-vector [x]0.55279500
P-vector [y]-0.76532029
P-vector [z]-0.32970068
Q-vector [x]0.83311523
Q-vector [y]0.51627701
Q-vector [z]0.19843654
absolute magnitude16.81
phase slope0.15
uncertainty0
referenceMPEC 2023-Y18
observations used521
oppositions20
arc length (days)11379
first opposition used1992
last opposition used2023
residual rms (arc-secs)0.77
perturbers coarse indicatorM-v
perturbers precise indicator003Ek
first observation date used1992-10-20.0
last observation date used2023-12-16.0
computer nameMPCLINUX
JD of orbit computation2456937.391362
perihelion JD uncertainty (days)4.9719E-05
argument of perihelion uncertainty (°)2.0220E-04
ascending node uncertainty (°)2.0190E-04
inclination uncertainty (°)5.1937E-06
eccentricity uncertainty 4.5427E-08
perihelion distance uncertainty (AU)1.1083E-07
Minimum Orbit Intersection Distances (in AU)
for orbit epoch: 2460200.5, reference: E2023-Y18
Mercury1.46484
Venus1.1766
Earth0.8877
Mars0.49708
Jupiter2.25066
Saturn6.12
Uranus15.5585
Neptune27.1872

Observations

540 total observations over interval: 1992 10 20.38134 – 2023 12 16.276673
These data are available for download (format description).

Date (UT) J2000 RA J2000 Dec Magn Location Ref
1992 10 20.38134 02 09 02.15 +10 33 35.4 19.5 V 691 – Steward Observatory, Kitt Peak-Spacewatch MPS 213902
1992 10 20.43620 02 08 58.91 +10 33 17.6   691 – Steward Observatory, Kitt Peak-Spacewatch MPS 213902
1992 10 20.45779 02 08 57.54 +10 33 10.6   691 – Steward Observatory, Kitt Peak-Spacewatch MPS 213902
1999 06 15.23522 16 30 50.97 -19 45 46.2 19.0   704 – Lincoln Laboratory ETS, New Mexico MPS 213902
1999 06 15.24740 16 30 50.24 -19 45 44.2 19.1   704 – Lincoln Laboratory ETS, New Mexico MPS 213902
1999 06 15.25954 16 30 49.53 -19 45 44.4 19.3   704 – Lincoln Laboratory ETS, New Mexico MPS 213902
1999 06 15.27172 16 30 48.92 -19 45 43.2 19.5   704 – Lincoln Laboratory ETS, New Mexico MPS 213902
1999 06 15.28386 16 30 48.17 -19 45 41.4 19.2   704 – Lincoln Laboratory ETS, New Mexico MPS 213902
2000 11 29.36781 04 52 04.85 +20 45 00.1 20.4 V 691 – Steward Observatory, Kitt Peak-Spacewatch MPC 49843
2000 11 29.39015 04 52 03.33 +20 44 57.9 20.4 V 691 – Steward Observatory, Kitt Peak-Spacewatch MPC 49843
2000 11 29.41232 04 52 01.85 +20 44 55.3 21.0 V 691 – Steward Observatory, Kitt Peak-Spacewatch MPC 49843
2002 02 08.36781 10 27 22.79 +10 27 14.1 21.5 V 291 – LPL/Spacewatch II MPS 213188
2002 02 08.38836 10 27 21.71 +10 27 20.8 21.3 V 291 – LPL/Spacewatch II MPS 213188
2002 02 08.41000 10 27 20.57 +10 27 27.5 21.3 V 291 – LPL/Spacewatch II MPS 213188
2002 03 04.19931 10 05 23.43 +12 40 23.9 21.3 V 291 – LPL/Spacewatch II MPS 213188
2002 03 04.21992 10 05 22.26 +12 40 30.7 21.5 V 291 – LPL/Spacewatch II MPS 213188
2002 03 04.24018 10 05 21.13 +12 40 36.7 21.3 V 291 – LPL/Spacewatch II MPS 213188
2003 06 25.33280 19 55 50.77 -19 40 33.4 19.2   704 – Lincoln Laboratory ETS, New Mexico MPS 213902
2003 06 25.34287 19 55 50.43 -19 40 35.3 19.3   704 – Lincoln Laboratory ETS, New Mexico MPS 213902
2003 06 25.36288 19 55 49.75 -19 40 37.0 18.9   704 – Lincoln Laboratory ETS, New Mexico MPS 213902
2003 07 02.31840 19 51 44.95 -19 57 39.7 18.6   704 – Lincoln Laboratory ETS, New Mexico MPS 213902
2003 07 02.32826 19 51 44.50 -19 57 40.2 18.8   704 – Lincoln Laboratory ETS, New Mexico MPS 213902
2003 07 02.33826 19 51 44.08 -19 57 42.3 19.0   704 – Lincoln Laboratory ETS, New Mexico MPS 213902
2003 07 02.34820 19 51 43.66 -19 57 43.6 19.0   704 – Lincoln Laboratory ETS, New Mexico MPS 213902
2003 07 02.35810 19 51 43.19 -19 57 45.8 19.1   704 – Lincoln Laboratory ETS, New Mexico MPS 213902
2003 07 16.47134 19 40 36.22 -20 41 09.1 19.3   608 – Haleakala-AMOS MPC 57074
2003 07 16.48244 19 40 35.61 -20 41 11.8 19.2   608 – Haleakala-AMOS MPC 57074
2003 07 16.49331 19 40 35.05 -20 41 14.3 18.9   608 – Haleakala-AMOS MPC 57074
2004 12 13.24119 06 02 37.59 +22 05 57.0 20.5 V 691 – Steward Observatory, Kitt Peak-Spacewatch MPS 213188
2004 12 13.26682 06 02 35.90 +22 05 57.4 20.4 V 691 – Steward Observatory, Kitt Peak-Spacewatch MPS 213188
2004 12 13.29245 06 02 34.19 +22 05 57.8 20.4 V 691 – Steward Observatory, Kitt Peak-Spacewatch MPS 213188
2005 10 24.62470 10 39 10.679 +08 48 54.29 20.9 R 568 – Maunakea MPS 213902
2005 10 24.63540 10 39 11.430 +08 48 49.74 21.0 R 568 – Maunakea MPS 213902
2006 01 23.45751 11 40 33.81 +03 05 24.3 21.5 V G96 – Mt. Lemmon Survey MPS 213902
2006 01 23.46581 11 40 33.67 +03 05 25.5 21.2 V G96 – Mt. Lemmon Survey MPS 213902
2006 01 23.47415 11 40 33.63 +03 05 26.9 21.9 V G96 – Mt. Lemmon Survey MPS 213902
2006 01 23.48249 11 40 33.56 +03 05 27.1 21.8 V G96 – Mt. Lemmon Survey MPS 213902
2006 02 21.37961 11 26 28.42 +04 54 41.1 20.6 V G96 – Mt. Lemmon Survey MPS 213902
2006 02 21.38776 11 26 28.03 +04 54 44.0 20.8 V G96 – Mt. Lemmon Survey MPS 213902
2006 02 21.39601 11 26 27.60 +04 54 46.8 20.8 V G96 – Mt. Lemmon Survey MPS 213902
2006 02 21.40416 11 26 27.20 +04 54 49.7 20.6 V G96 – Mt. Lemmon Survey MPS 213902
2006 03 24.23961 10 58 58.15 +07 59 37.6 20.4 V G96 – Mt. Lemmon Survey MPS 167246
2006 03 24.24535 10 58 57.90 +07 59 39.3 20.9 V G96 – Mt. Lemmon Survey MPS 167246
2006 03 24.25115 10 58 57.54 +07 59 40.8 20.4 V G96 – Mt. Lemmon Survey MPS 167246
2006 03 24.25707 10 58 57.21 +07 59 43.0 20.6 V G96 – Mt. Lemmon Survey MPS 167246
2006 03 26.13802 10 57 24.78 +08 09 30.2 21.3 V 691 – Steward Observatory, Kitt Peak-Spacewatch MPS 167246
2006 03 26.15902 10 57 23.74 +08 09 36.8 21.2 V 691 – Steward Observatory, Kitt Peak-Spacewatch MPS 167246
2006 03 26.18002 10 57 22.63 +08 09 43.3 21.3 V 691 – Steward Observatory, Kitt Peak-Spacewatch MPS 167246
2006 03 29.12800 10 55 04.28 +08 24 11.7 20.7 V 691 – Steward Observatory, Kitt Peak-Spacewatch MPS 168296
2006 03 29.14677 10 55 03.41 +08 24 17.1 21.0 V 691 – Steward Observatory, Kitt Peak-Spacewatch MPS 168296
2006 03 29.16553 10 55 02.51 +08 24 22.1 20.8 V 691 – Steward Observatory, Kitt Peak-Spacewatch MPS 168296
2007 06 24.38157 22 51 04.42 -07 26 27.3 20.0 V 703 – Catalina Sky Survey MPS 213188
2007 06 24.39007 22 51 04.93 -07 26 25.8 19.9 V 703 – Catalina Sky Survey MPS 213188
2007 06 24.39859 22 51 05.36 -07 26 23.1 20.3 V 703 – Catalina Sky Survey MPS 213188
2007 06 24.40707 22 51 05.86 -07 26 20.3 21.0 V 703 – Catalina Sky Survey MPS 213188
2007 08 09.24036 23 04 00.89 -07 02 42.0   691 – Steward Observatory, Kitt Peak-Spacewatch MPS 213188
2007 08 09.26146 23 04 00.28 -07 02 47.2   691 – Steward Observatory, Kitt Peak-Spacewatch MPS 213188
2007 08 09.27160 23 03 59.99 -07 02 50.3 18.7   704 – Lincoln Laboratory ETS, New Mexico MPS 213188
2007 08 09.27911 23 03 59.78 -07 02 51.6   691 – Steward Observatory, Kitt Peak-Spacewatch MPS 213188
2007 08 09.28335 23 03 59.59 -07 02 53.1 19.0   704 – Lincoln Laboratory ETS, New Mexico MPS 213188
2007 08 09.30688 23 03 58.91 -07 02 58.5 19.1   704 – Lincoln Laboratory ETS, New Mexico MPS 213188
2007 08 09.31869 23 03 58.59 -07 03 02.1 19.4   704 – Lincoln Laboratory ETS, New Mexico MPS 213188
2007 08 11.95656 23 02 41.79 -07 14 34.7 19.4 R J75 – OAM Observatory, La Sagra MPS 213188
2007 08 11.96977 23 02 41.38 -07 14 38.8 19.4 R J75 – OAM Observatory, La Sagra MPS 213188
2007 08 11.98291 23 02 40.93 -07 14 41.9 19.2 R J75 – OAM Observatory, La Sagra MPS 213188
2007 08 12.96219 23 02 09.47 -07 19 16.3 19.1 R J75 – OAM Observatory, La Sagra MPS 213188
2007 08 13.00427 23 02 07.98 -07 19 28.7 19.5 R J75 – OAM Observatory, La Sagra MPS 213188
2007 08 13.04648 23 02 06.46 -07 19 40.8 19.7 R J75 – OAM Observatory, La Sagra MPS 213188
2007 08 14.05745 23 01 32.25 -07 24 33.5 18.7 V J75 – OAM Observatory, La Sagra MPS 214302
2007 08 14.10170 23 01 30.55 -07 24 46.5 19.7 V J75 – OAM Observatory, La Sagra MPS 214302
2007 08 14.11698 23 01 29.98 -07 24 51.4 19.4 V J75 – OAM Observatory, La Sagra MPS 214302
2007 08 15.26950 23 00 49.49 -07 30 34.3 18.9   704 – Lincoln Laboratory ETS, New Mexico MPS 213902
2007 08 15.28164 23 00 48.95 -07 30 37.0 19.5   704 – Lincoln Laboratory ETS, New Mexico MPS 213902
2007 08 15.29371 23 00 48.48 -07 30 41.8 19.0   704 – Lincoln Laboratory ETS, New Mexico MPS 213902
2007 08 15.30579 23 00 48.05 -07 30 45.8 19.0   704 – Lincoln Laboratory ETS, New Mexico MPS 213902
2007 08 15.31787 23 00 47.55 -07 30 49.6 19.3   704 – Lincoln Laboratory ETS, New Mexico MPS 213902
2007 08 16.57949 23 00 00.96 -07 37 19.8 18.1 R D29 – Purple Mountain Observatory, XuYi Station MPS 213188
2007 08 16.59259 23 00 00.28 -07 37 23.8 18.7 R D29 – Purple Mountain Observatory, XuYi Station MPS 213188
2007 08 16.60328 22 59 59.84 -07 37 26.3 18.4 R D29 – Purple Mountain Observatory, XuYi Station MPS 213188
2007 08 16.61449 22 59 59.40 -07 37 30.4 18.4 R D29 – Purple Mountain Observatory, XuYi Station MPS 213188
2007 08 17.28860 22 59 33.19 -07 41 02.8 18.5   704 – Lincoln Laboratory ETS, New Mexico MPS 213902
2007 08 17.30096 22 59 32.69 -07 41 07.0 19.1   704 – Lincoln Laboratory ETS, New Mexico MPS 213902
